KC7NGC-B Weather Reports


time (UTC)temp
C
wind
direction
speed
KPH
gust
KPH
rain 1hr
cm
rain 24hr
cm
rain mn
cm
humidity
%
barometer
mb
20260506114633 18 232 11.3 16.1 0.00 0.00 0.00 48 1013.9
20260506113629 18 242 8.0 14.5 0.00 0.00 0.00 49 1013.5
20260506112626 18 256 6.4 9.7 0.00 0.00 0.00 49 1013.7
20260506111639 17 238 6.4 11.3 0.00 0.00 0.00 55 1013.7
20260506110647 15 266 3.2 4.8 0.00 0.00 0.00 64 1013.7
20260506105645 17 240 3.2 4.8 0.00 0.00 0.00 60 1013.6
20260506104642 16 205 0.0 3.2 0.00 0.00 0.00 61 1013.5
20260506103718 15 189 3.2 3.2 0.00 0.00 0.00 68 1013.4
20260506102633 16 329 4.8 6.4 0.00 0.00 0.00 65 1013.4
20260506101635 16 14 1.6 4.8 0.00 0.00 0.00 63 1013.2
20260506100627 16 209 1.6 3.2 0.00 0.00 0.00 65 1013.4
20260506095629 16 0.0 3.2 0.00 0.00 0.00 65 1013.3
20260506094629 18 120 1.6 3.2 0.00 0.00 0.00 56 1013.2
20260506093621 18 169 3.2 4.8 0.00 0.00 0.00 51 1013.2
20260506092626 18 349 3.2 6.4 0.00 0.00 0.00 53 1013.4
20260506091638 21 223 6.4 11.3 0.00 0.00 0.00 45 1012.9
20260506090638 20 237 9.7 14.5 0.00 0.00 0.00 48 1013.0
20260506085632 20 286 11.3 14.5 0.00 0.00 0.00 47 1013.2
20260506084633 21 286 8.0 9.7 0.00 0.00 0.00 45 1013.2
20260506083628 21 316 14.5 17.7 0.00 0.00 0.00 42 1013.0
20260506082630 21 297 4.8 9.7 0.00 0.00 0.00 41 1012.9
20260506081628 21 256 6.4 9.7 0.00 0.00 0.00 44 1012.8
20260506080624 21 246 8.0 9.7 0.00 0.00 0.00 43 1012.8
20260506072636 22 258 6.4 8.0 0.00 0.00 0.00 39 1012.7
20260506071629 22 320 3.2 4.8 0.00 0.00 0.00 38 1012.7
20260506070654 22 188 1.6 3.2 0.00 0.00 0.00 38 1012.6
20260506061641 22 215 4.8 6.4 0.00 0.00 0.00 39 1012.5
20260506060719 22 193 1.6 4.8 0.00 0.00 0.00 39 1012.5
20260506050624 23 212 9.7 14.5 0.00 0.00 0.00 37 1012.2
20260506044637 23 180 8.0 11.3 0.00 0.00 0.00 36 1012.3
20260506043633 23 209 8.0 16.1 0.00 0.00 0.00 38 1012.3
20260506042716 23 211 4.8 8.0 0.00 0.00 0.00 37 1012.3
20260506041628 23 208 6.4 8.0 0.00 0.00 0.00 36 1012.2
20260506040633 23 218 6.4 9.7 0.00 0.00 0.00 34 1012.2
20260506035623 24 218 6.4 9.7 0.00 0.00 0.00 32 1012.0
20260506034626 24 224 4.8 6.4 0.00 0.00 0.00 32 1012.0
20260506033623 23 209 3.2 4.8 0.00 0.00 0.00 33 1011.8
20260506032619 23 161 3.2 4.8 0.00 0.00 0.00 33 1011.9
20260506031722 24 227 1.6 3.2 0.00 0.00 0.00 34 1011.7
20260506030635 25 0.0 1.6 0.00 0.00 0.00 33 1011.8
20260506025633 26 217 3.2 3.2 0.00 0.00 0.00 33 1011.5
20260506024633 26 0.0 1.6 0.00 0.00 0.00 27 1011.5
20260506023642 26 21 3.2 3.2 0.00 0.00 0.00 27 1011.5
20260506022636 26 52 4.8 4.8 0.00 0.00 0.00 26 1011.5
20260506021624 27 66 4.8 6.4 0.00 0.00 0.00 26 1011.5
20260506020624 27 28 3.2 6.4 0.00 0.00 0.00 27 1011.7
20260506015622 27 87 1.6 3.2 0.00 0.00 0.00 25 1011.6
20260506014647 27 56 4.8 6.4 0.00 0.00 0.00 26 1011.5
20260506013656 27 29 6.4 8.0 0.00 0.00 0.00 25 1011.5
20260506012633 27 20 8.0 9.7 0.00 0.00 0.00 24 1011.5
20260506011634 27 15 9.7 12.9 0.00 0.00 0.00 24 1011.5
20260506010626 28 9 11.3 14.5 0.00 0.00 0.00 24 1011.5
20260506005647 27 24 4.8 6.4 0.00 0.00 0.00 24 1011.6
20260506004645 27 24 8.0 9.7 0.00 0.00 0.00 25 1011.8
20260506003624 28 16 9.7 12.9 0.00 0.00 0.00 24 1011.7
20260506002618 27 34 6.4 12.9 0.00 0.00 0.00 25 1011.8
20260506001635 27 42 11.3 14.5 0.00 0.00 0.00 25 1011.7
20260506000635 27 43 6.4 9.7 0.00 0.00 0.00 26 1011.8
20260505235632 28 44 11.3 16.1 0.00 0.00 0.00 24 1011.9
20260505234631 27 38 8.0 11.3 0.00 0.00 0.00 27 1012.0
20260505233629 27 326 4.8 6.4 0.00 0.00 0.00 27 1012.1
20260505232627 27 294 3.2 9.7 0.00 0.00 0.00 26 1012.1
20260505231625 27 23 8.0 9.7 0.00 0.00 0.00 25 1012.3
20260505230619 27 29 9.7 12.9 0.00 0.00 0.00 27 1012.3
20260505225617 27 25 14.5 24.1 0.00 0.00 0.00 27 1012.4
20260505224640 27 33 8.0 12.9 0.00 0.00 0.00 27 1012.5
20260505223658 27 54 9.7 20.9 0.00 0.00 0.00 28 1012.7
20260505222630 27 81 9.7 12.9 0.00 0.00 0.00 29 1012.6
20260505221631 27 51 12.9 16.1 0.00 0.00 0.00 28 1012.6
20260505220628 27 27 11.3 17.7 0.00 0.00 0.00 29 1012.8
20260505215630 27 36 12.9 19.3 0.00 0.00 0.00 29 1012.7
20260505214626 27 63 11.3 14.5 0.00 0.00 0.00 29 1012.9
20260505213620 27 65 14.5 22.5 0.00 0.00 0.00 29 1013.0
20260505212619 26 45 9.7 19.3 0.00 0.00 0.00 30 1013.2
20260505211636 27 39 14.5 17.7 0.00 0.00 0.00 30 1013.0
20260505210639 26 70 11.3 16.1 0.00 0.00 0.00 30 1013.1
20260505205634 26 46 11.3 20.9 0.00 0.00 0.00 31 1013.3
20260505204634 26 70 9.7 11.3 0.00 0.00 0.00 32 1013.4
20260505203626 26 66 8.0 11.3 0.00 0.00 0.00 33 1013.4
20260505202627 26 40 14.5 22.5 0.00 0.00 0.00 33 1013.5
20260505201625 26 359 9.7 14.5 0.00 0.00 0.00 31 1013.6
20260505200619 26 14 11.3 14.5 0.00 0.00 0.00 30 1013.5
20260505195620 26 354 17.7 24.1 0.00 0.00 0.00 30 1013.4
20260505194638 25 5 14.5 20.9 0.00 0.00 0.00 33 1013.7
20260505193634 25 18 17.7 25.7 0.00 0.00 0.00 33 1013.5
20260505192640 25 14 8.0 12.9 0.00 0.00 0.00 35 1013.7
20260505191649 24 29 9.7 19.3 0.00 0.00 0.00 36 1013.5
20260505190626 24 6 19.3 25.7 0.00 0.00 0.00 35 1013.8
20260505185631 24 26 14.5 20.9 0.00 0.00 0.00 36 1013.8
20260505184622 23 13 14.5 24.1 0.00 0.00 0.00 37 1013.6
20260505183620 23 13 19.3 24.1 0.00 0.00 0.00 36 1013.7
20260505182622 23 2 9.7 14.5 0.00 0.00 0.00 37 1013.7
20260505181638 22 3 12.9 19.3 0.00 0.00 0.00 37 1013.8
20260505180633 22 21 16.1 24.1 0.00 0.00 0.00 38 1013.8
20260505175635 22 338 11.3 14.5 0.00 0.00 0.00 38 1013.8
20260505174633 22 341 14.5 24.1 0.00 0.00 0.00 39 1013.9
20260505173634 22 348 17.7 20.9 0.00 0.00 0.00 39 1013.9
20260505172630 21 6 17.7 20.9 0.00 0.00 0.00 39 1013.8
20260505171624 21 344 16.1 27.4 0.00 0.00 0.00 40 1013.8
20260505170628 21 355 16.1 20.9 0.00 0.00 0.00 42 1013.9
20260505165621 20 350 11.3 16.1 0.00 0.00 0.00 43 1013.7
20260505164640 20 348 12.9 20.9 0.00 0.00 0.00 42 1013.6
20260505163638 20 349 17.7 25.7 0.00 0.00 0.00 41 1013.5
20260505162632 19 326 22.5 29.0 0.00 0.00 0.00 44 1013.6
20260505161633 19 6 14.5 19.3 0.00 0.00 0.00 44 1013.5
20260505160628 19 345 14.5 22.5 0.00 0.00 0.00 45 1013.4
20260505152618 17 315 14.5 19.3 0.00 0.00 0.00 54 1013.0
20260505151637 17 312 11.3 16.1 0.00 0.00 0.00 51 1012.9
20260505150635 17 333 9.7 14.5 0.00 0.00 0.00 53 1012.8
20260505140625 16 271 3.2 3.2 0.00 0.00 0.00 59 1012.3
20260505124625 13 311 6.4 9.7 0.00 0.00 0.00 66 1011.2
20260505123622 13 341 11.3 16.1 0.00 0.00 0.00 66 1011.0
20260505122622 15 340 8.0 11.3 0.00 0.00 0.00 62 1011.0
20260505121639 15 323 4.8 4.8 0.00 0.00 0.00 63 1010.8
20260505120634 16 321 4.8 6.4 0.00 0.00 0.00 59 1010.9
20260505115633 16 321 8.0 9.7 0.00 0.00 0.00 57 1010.5